Terminal Aerodrome Forecast
Issued by NWS

Current Version | Previous Version | Text Only | Print | Product List | Glossary Off
Versions: 1 2 3 4 5 6 7 8 9 10 11 12 13 14 15 16 17 18 19 20 21 22 23 24 25

000
FTUS41 KPBZ 280708 AAA
TAFHLG
TAF AMD
KHLG 280708Z 2807/2906 00000KT 2SM BR SKC
      TEMPO 2809/2813 1/2SM FG VV002
     FM281330 VRB04KT P6SM SCT250=

USA.gov is the U.S. government's official web portal to all federal, state and local government web resources and services.